STARLINK-32856 (62819 NORAD) Tracking and Keplerian Element Data

This shows tracking and keplerian element data for the satellite.

Feedback or suggestion? Click here.




ElementValue
Catalog62819
NameSTARLINK-32856
Epoch Orbit280
Epoch Day34.83335648
Epoch Year2025
RAAN13.5827
Inclination53.147
Eccentricity0.0001027
Argument of Perigee110.5687
Mean Anonmoly215.8724
Mean Motion15.86865453
Decay Rate-0.00998262
L11 62819U 25018P 25034.83335648 -.00998262 00000+0 -42525-2 0 9993
L22 62819 53.1470 13.5827 0001027 110.5687 215.8724 15.86865453 2802



Live tracking and technical data element details for STARLINK-32856 (NORAD 62819). STARLINK-32856 can be tracked NOW for your location showing map with azimuth and elevation plus other details from your city location.







IsCatalogInMostPopularTable: catalog: 62819, numindb: 3
Update: records affected: 1



GetName: 62819 STARLINK-32856

Hit Count: updated at: Sun, 09 Feb 2025 15:38:47 GMT